This is the latest recevied weather packets stored in our database for station/object K1WJY. If no packets are shown the sender has not sent any weather packets the latest 10 day(s).
| Time | Temp. | Humidity | Pressure | Rain* | Wind** | Luminosity | Snow |
|---|---|---|---|---|---|---|---|
| 1788001460 | 12.78° C | 94% | 1022.7 hPa | 0 mm | - | 35 W/m² | - |
| 1788001160 | 12.22° C | 96% | 1022.5 hPa | 0 mm | - | 33 W/m² | - |
| 1788000856 | 11.67° C | 98% | 1022.4 hPa | 0 mm | - | 37 W/m² | - |
| 1788000551 | 11.11° C | 98% | 1022.5 hPa | 0 mm | - | 33 W/m² | - |
| 1788000250 | 11.11° C | 98% | 1022.5 hPa | 0 mm | - | 23 W/m² | - |
| 1787999946 | 11.11° C | 98% | 1022.4 hPa | 0 mm | - | 21 W/m² | - |
| 1787999643 | 11.11° C | 98% | 1022.2 hPa | 0 mm | - | 20 W/m² | - |
| 1787999339 | 11.11° C | 97% | 1022.3 hPa | 0 mm | - | 19 W/m² | - |
| 1787999038 | 11.11° C | 97% | 1022.4 hPa | 0 mm | - | 16 W/m² | - |
| 1787998733 | 11.67° C | 96% | 1022 hPa | 0 mm | - | 15 W/m² | - |
| 1787998431 | 11.67° C | 96% | 1021.8 hPa | 0 mm | - | 13 W/m² | - |
| 1787998127 | 11.67° C | 96% | 1022.1 hPa | 0 mm | - | 9 W/m² | - |
| 1787997826 | 11.67° C | 96% | 1022 hPa | 0 mm | - | 6 W/m² | - |
| 1787997525 | 11.67° C | 95% | 1021.8 hPa | 0 mm | - | 4 W/m² | - |
| 1787997224 | 11.67° C | 95% | 1021.9 hPa | 0 mm | - | 2 W/m² | - |
| 1787996924 | 12.22° C | 94% | 1021.7 hPa | 0 mm | - | 0 W/m² | - |
| 1787996619 | 12.22° C | 92% | 1021.6 hPa | 0 mm | - | 0 W/m² | - |
| 1787996320 | 12.22° C | 92% | 1021.6 hPa | 0 mm | - | 0 W/m² | - |
| 1787996019 | 12.22° C | 91% | 1021.7 hPa | 0 mm | - | 0 W/m² | - |
| 1787995714 | 12.22° C | 92% | 1021.7 hPa | 0 mm | - | 0 W/m² | - |
| 1787995410 | 12.78° C | 91% | 1021.4 hPa | 0 mm | - | 0 W/m² | - |
| 1787995106 | 12.78° C | 90% | 1021.5 hPa | 0 mm | - | 0 W/m² | - |
| 1787994801 | 12.78° C | 89% | 1021.4 hPa | 0 mm | - | 0 W/m² | - |
| 1787994498 | 12.78° C | 90% | 1021 hPa | 0 mm | - | 0 W/m² | - |
| 1787994195 | 12.78° C | 89% | 1021.3 hPa | 0 mm | - | 0 W/m² | - |
* Rain latest hour (hover to see other rain measurements)
** Current wind speed in m/s (hover to see current wind gust speed)